sat.trackr.live / text

‹ back to catalog

UNKNOWN

NORAD 85047

UNKNOWN UNKNOWN UNKNOWN

§ Identity

Operator
Country
Launch date
Launch site
Launch vehicle
Mass (kg)
RCS (m²)

External: N2YO · Heavens-Above

§ Orbital elements

Epoch: 2026-09-17T00:33:25.355232Z

Period
106.64 min
Inclination
102.1706°
Eccentricity
0.0128715
Mean motion
13.50390754 rev/d
Perigee alt
974.9 km
Apogee alt
1,166.7 km
Semi-major
7,449.0 km
B*
1.4127e-2
RAAN
289.9692°
Arg perigee
119.9081°
Mean anomaly
241.4900°
Rev number
61,414

§ Raw data

UNKNOWN1 85047U          26260.02321013  .00009472  00000+0  14127-1 0  99992 85047 102.1706 289.9692 0128715 119.9081 241.4900 13.50390754614144

JSON: /api/v1/satellites/85047 · /tle

For live sub-satellite position, see the globe view (requires WebGL).

§ Visibility from observer

Set your observer location to see the next 7 days of passes ≥ 10°. The values pass through the URL so the page stays shareable.

No JS? Fill the form by hand. The geolocation button needs JavaScript.